Orbital Elements at Epoch 2453433.5 (2005-Mar-04.0) TDB
Reference: JPL 8 (heliocentric ecliptic J2000)
Element | Value | Uncertainty (1-sigma) | Units |
e | .7703909030797559 | 0.0033798 | |
a | .892703526990474 | 0.0031553 | au |
q | .2049728506497995 | 0.0022927 | au |
i | 16.32566133004417 | 0.20361 | deg |
node | 344.3922420638831 | 0.0084395 | deg |
peri | 328.0475635496043 | 0.067001 | deg |
M | 297.4054973042851 | 0.60238 | deg |
tp | 2453487.066466037528 (2005-Apr-26.56646604) | 0.2315 | TDB |
period | 308.0770186361781 0.84 | 1.6334 0.004472 | d yr |
n | 1.168538963385451 | 0.0061954 | deg/d |
Q | 1.580434203331148 | 0.0055862 | au |
|
| | Orbit Determination Parameters
Additional Information
|